COSMOS 374 DEB

Satellite information

Favourite Embed

Satellite Type and Status

DEBRISIN ORBIT

Key statistics

Satellite COSMOS 374 DEB at a glance.

Uptime

20141

Days in orbit

Revolutions

≈ 12.6

Per day

Orbit

MEO

Medium Earth Orbit

Inclination

64.0

Latest

Satellite identification and parameters

Extended collection of information and parameters for COSMOS 374 DEB.

Object identification

Identified? True

Debris? True

Object name: COSMOS 374 DEB

International designator: 1970-089AZ

Object number (NORAD): 5188

Object ID (CCSDS): 5188

Country: COMMONWEALTH OF INDEPENDENT STATES (CIS)

Current information (Y/N): Y

RCS size: SMALL

Orbital parameters

Period: 114.188 minutes

Inclination: 63.9968 deg

SMA: 7796.63 km

Apoapsis: 2116.712 km

Periapsis: 720.277 km

RAAN: 318.9192 deg

Eccentricy: 0.0895538

Argument of periapsis: 212.3702 deg

Mean anomaly: 141.9216 deg

Mean motion: 12.61079356 rev/day

Mean motion (dot): 0.00000123 rev/day2

B* drag term: 0.00022562712 1/REarth

Two-line elements (TLE)

Creation date: Dec. 11, 2025, 7:14 p.m.

Reference frame: TEME

Reference center: EARTH

Epoch: Dec. 11, 2025, 7:16 a.m. UTC

TLE line 0: 0 COSMOS 374 DEB

TLE line 1: 1 05188U 70089AZ 25345.30344938 .00000123 00000-0 22563-3 0 9996

TLE line 2: 2 05188 63.9968 318.9192 0895538 212.3702 141.9216 12.61079356848490

Live tracking on map

Real-time ground track for satellite COSMOS 374 DEB.

In-orbit conjunctions

A list of the most updated potential collisions computed for object COSMOS 374 DEB.

Target Orbit TCA Probability of collision Miss distance Type
CZ-6A DEB LEO 2025-02-25 01:06:37 0.0001009409 754.0 (m) DEBRIS
NOAA 16 DEB SSO 2024-11-11 11:10:43 0.001743153 223.0 (m) DEBRIS

Associated space launch

The I2P satellites were the first soviet coorbital ASAT system.

COSMOS 374 DEB was lifted into orbit during the mission ‘Tsiklon-2 | I2P 4’, on board a Tsiklon-2 space rocket.

The launch took place on Oct. 23, 1970, 4:42 a.m. from 90/20.

For more information about the launch, click the button.

Launch to space Tsiklon-2 | I2P 4
Tsiklon-2 | I2P 4

Agency: N/A

Status: Launch Successful

Launch date: Oct. 23, 1970, 4:42 a.m. UTC

Rocket: Tsiklon-2

Launch pad: 90/20

Location: Baikonur Cosmodrome, Republic of Kazakhstan

...

Latest news about this satellite

There are no fresh news available about this satellite. Check back as we update our databases every day.


Newsletter sign-up

Weekly statistics, charts and insights to help you stay on top of the space industry.